WB4FAY-4 Weather Reports


Display with metric or nautical units.
time (UTC)temp
F
wind
direction
speed
MPH
gust
MPH
rain 1hr
in
rain 24hr
in
rain mn
in
humidity
%
barometer
mb
20260901003517 85 0 0.0 0.0 0.00 0.00 0.00 65 1018.3
20260901003017 86 0 0.0 0.0 0.00 0.00 0.00 64 1018.3
20260901002517 86 0 0.0 0.0 0.00 0.00 0.00 63 1018.3
20260901002018 87 0 0.0 0.0 0.00 0.00 0.00 62 1018.3
20260901001517 87 0 0.0 0.0 0.00 0.00 0.00 61 1018.2
20260901001017 88 0 0.0 0.0 0.00 0.00 0.00 60 1018.3
20260901000517 88 0 0.0 0.0 0.00 0.00 0.00 58 1018.3
20260901000017 89 83 0.0 4.0 0.00 0.00 0.00 57 1018.4
20260831235517 89 106 0.0 4.0 0.00 0.00 0.00 56 1018.4
20260831235018 90 109 1.0 4.0 0.00 0.00 0.00 55 1018.4
20260831234517 90 58 0.0 2.0 0.00 0.00 0.00 54 1018.4
20260831234018 90 0 0.0 0.0 0.00 0.00 0.00 53 1018.4
20260831233517 90 56 0.0 5.0 0.00 0.00 0.00 52 1018.4
20260831233017 91 86 2.0 4.0 0.00 0.00 0.00 52 1018.3
20260831232517 91 102 0.0 2.0 0.00 0.00 0.00 51 1018.3
20260831232017 91 80 0.0 6.0 0.00 0.00 0.00 50 1018.3
20260831231517 91 100 0.0 3.0 0.00 0.00 0.00 50 1018.4
20260831231018 91 95 1.0 7.0 0.00 0.00 0.00 50 1018.4
20260831230517 91 61 3.0 4.0 0.00 0.00 0.00 50 1018.5
20260831230017 91 79 0.0 6.0 0.00 0.00 0.00 49 1018.5
20260831225517 91 104 0.0 5.0 0.00 0.00 0.00 49 1018.5
20260831225017 92 66 0.0 4.0 0.00 0.00 0.00 50 1018.5
20260831224517 92 78 0.0 9.0 0.00 0.00 0.00 49 1018.5
20260831224017 92 82 5.0 6.0 0.00 0.00 0.00 49 1018.6
20260831223517 92 83 0.0 7.0 0.00 0.00 0.00 49 1018.5
20260831223017 92 360 2.0 7.0 0.00 0.00 0.00 49 1018.6
20260831222517 92 65 5.0 7.0 0.00 0.00 0.00 48 1018.5
20260831222017 93 78 4.0 6.0 0.00 0.00 0.00 47 1018.5
20260831221517 93 93 3.0 6.0 0.00 0.00 0.00 46 1018.5
20260831221017 93 96 4.0 7.0 0.00 0.00 0.00 46 1018.6
20260831220517 93 90 6.0 2.0 0.00 0.00 0.00 48 1018.5
20260831220017 93 85 1.0 8.0 0.00 0.00 0.00 48 1018.5
20260831215517 94 88 0.0 6.0 0.00 0.00 0.00 48 1018.5
20260831215017 94 99 4.0 5.0 0.00 0.00 0.00 46 1018.5
20260831214517 94 66 3.0 7.0 0.00 0.00 0.00 45 1018.6
20260831214017 95 78 5.0 6.0 0.00 0.00 0.00 44 1018.6
20260831213517 95 69 2.0 9.0 0.00 0.00 0.00 43 1018.6
20260831213017 96 97 2.0 5.0 0.00 0.00 0.00 42 1018.7
20260831212517 96 86 3.0 5.0 0.00 0.00 0.00 42 1018.8
20260831212018 95 82 2.0 8.0 0.00 0.00 0.00 44 1018.8
20260831211517 95 83 1.0 8.0 0.00 0.00 0.00 43 1018.8
20260831211017 96 58 0.0 6.0 0.00 0.00 0.00 43 1018.9
20260831210517 96 73 2.0 9.0 0.00 0.00 0.00 43 1018.9
20260831210018 95 90 0.0 8.0 0.00 0.00 0.00 43 1018.9
20260831205517 95 78 0.0 9.0 0.00 0.00 0.00 43 1018.8
20260831205017 96 79 4.0 6.0 0.00 0.00 0.00 42 1018.9
20260831204517 96 90 3.0 8.0 0.00 0.00 0.00 43 1018.9
20260831204017 96 68 6.0 4.0 0.00 0.00 0.00 43 1018.9
20260831203518 96 113 0.0 7.0 0.00 0.00 0.00 43 1018.9
20260831203017 96 100 3.0 7.0 0.00 0.00 0.00 44 1018.9
20260831202517 95 96 2.0 7.0 0.00 0.00 0.00 43 1019.0
20260831202017 95 97 2.0 5.0 0.00 0.00 0.00 43 1019.0
20260831201517 95 83 2.0 6.0 0.00 0.00 0.00 43 1019.1
20260831201017 95 95 0.0 7.0 0.00 0.00 0.00 43 1019.2
20260831200517 95 160 1.0 8.0 0.00 0.00 0.00 44 1019.2
20260831200018 95 144 0.0 4.0 0.00 0.00 0.00 44 1019.3
20260831195517 94 71 0.0 8.0 0.00 0.00 0.00 42 1019.3
20260831195017 94 137 5.0 5.0 0.00 0.00 0.00 43 1019.5
20260831194517 94 107 1.0 8.0 0.00 0.00 0.00 43 1019.5
20260831194017 93 88 3.0 7.0 0.00 0.00 0.00 45 1019.4
20260831193518 93 35 7.0 5.0 0.00 0.00 0.00 46 1019.5
20260831193017 93 61 0.0 8.0 0.00 0.00 0.00 45 1019.6
20260831192517 93 86 4.0 9.0 0.00 0.00 0.00 46 1019.6
20260831192017 93 34 3.0 5.0 0.00 0.00 0.00 46 1019.6
20260831191517 93 93 0.0 8.0 0.00 0.00 0.00 46 1019.7
20260831191017 93 90 0.0 7.0 0.00 0.00 0.00 46 1019.8
20260831190517 93 121 3.0 4.0 0.00 0.00 0.00 47 1019.8
20260831190017 92 32 3.0 5.0 0.00 0.00 0.00 48 1019.9
20260831185518 92 18 0.0 4.0 0.00 0.00 0.00 47 1019.9
20260831185017 92 356 2.0 6.0 0.00 0.00 0.00 48 1020.0
20260831184517 92 76 6.0 6.0 0.00 0.00 0.00 49 1020.1
20260831184017 91 23 2.0 5.0 0.00 0.00 0.00 49 1020.2
20260831183517 91 72 0.0 7.0 0.00 0.00 0.00 47 1020.2
20260831183017 91 189 0.0 4.0 0.00 0.00 0.00 49 1020.3
20260831182517 90 92 0.0 4.0 0.00 0.00 0.00 51 1020.4
20260831182017 90 0 0.0 0.0 0.00 0.00 0.00 51 1020.5
20260831181517 90 45 0.0 3.0 0.00 0.00 0.00 53 1020.5
20260831181017 90 0 0.0 0.0 0.00 0.00 0.00 55 1020.7
20260831180518 90 0 0.0 0.0 0.00 0.00 0.00 54 1020.7
20260831180018 91 34 0.0 4.0 0.00 0.00 0.00 53 1020.7
20260831175517 91 120 1.0 3.0 0.00 0.00 0.00 57 1020.8
20260831175017 90 80 1.0 5.0 0.00 0.00 0.00 55 1020.8
20260831174517 90 42 0.0 7.0 0.00 0.00 0.00 55 1020.9
20260831174017 90 239 0.0 4.0 0.00 0.00 0.00 56 1021.0
20260831173517 89 256 1.0 5.0 0.00 0.00 0.00 57 1021.0
20260831173017 89 136 1.0 4.0 0.00 0.00 0.00 58 1021.0
20260831172517 89 112 3.0 5.0 0.00 0.00 0.00 59 1021.1
20260831172017 89 182 0.0 5.0 0.00 0.00 0.00 58 1021.1
20260831171517 89 127 0.0 4.0 0.00 0.00 0.00 57 1021.2
20260831171018 89 75 0.0 8.0 0.00 0.00 0.00 58 1021.2
20260831170517 89 78 6.0 6.0 0.00 0.00 0.00 60 1021.2
20260831170017 88 271 0.0 5.0 0.00 0.00 0.00 61 1021.2
20260831165517 87 278 1.0 3.0 0.00 0.00 0.00 64 1021.3
20260831165017 87 253 3.0 3.0 0.00 0.00 0.00 66 1021.4
20260831164517 87 93 0.0 2.0 0.00 0.00 0.00 65 1021.5
20260831164017 87 93 0.0 2.0 0.00 0.00 0.00 64 1021.6
20260831163517 87 0 0.0 0.0 0.00 0.00 0.00 65 1021.6
20260831163017 87 320 0.0 4.0 0.00 0.00 0.00 65 1021.7
20260831162517 88 0 0.0 0.0 0.00 0.00 0.00 62 1021.8
20260831162017 88 144 0.0 2.0 0.00 0.00 0.00 60 1021.8
20260831161517 88 48 0.0 4.0 0.00 0.00 0.00 62 1021.8
20260831161018 88 88 0.0 6.0 0.00 0.00 0.00 61 1021.8
20260831160517 88 116 0.0 6.0 0.00 0.00 0.00 62 1021.9
20260831160017 88 78 0.0 2.0 0.00 0.00 0.00 61 1021.9
20260831155517 88 97 0.0 5.0 0.00 0.00 0.00 62 1021.8
20260831155017 88 79 1.0 4.0 0.00 0.00 0.00 62 1022.0
20260831154517 87 89 0.0 7.0 0.00 0.00 0.00 63 1022.0
20260831154017 87 49 3.0 4.0 0.00 0.00 0.00 64 1021.9
20260831153517 87 75 2.0 7.0 0.00 0.00 0.00 65 1021.9
20260831153018 86 155 4.0 6.0 0.00 0.00 0.00 65 1021.9
20260831152517 86 258 4.0 4.0 0.00 0.00 0.00 66 1021.9
20260831152017 86 90 0.0 2.0 0.00 0.00 0.00 68 1021.9
20260831151517 85 0 0.0 0.0 0.00 0.00 0.00 69 1021.9
20260831151017 85 0 0.0 0.0 0.00 0.00 0.00 70 1021.9
20260831150517 85 99 0.0 5.0 0.00 0.00 0.00 70 1022.0
20260831150017 84 82 2.0 5.0 0.00 0.00 0.00 70 1021.9
20260831145517 84 161 1.0 3.0 0.00 0.00 0.00 71 1022.0
20260831145017 84 0 0.0 0.0 0.00 0.00 0.00 73 1022.0
20260831144517 83 0 0.0 0.0 0.00 0.00 0.00 75 1021.9
20260831144017 82 0 0.0 0.0 0.00 0.00 0.00 75 1021.9
20260831143517 83 271 0.0 2.0 0.00 0.00 0.00 75 1021.9
20260831143017 82 302 2.0 2.0 0.00 0.00 0.00 75 1021.9
20260831142517 82 311 2.0 3.0 0.00 0.00 0.00 77 1021.9
20260831142018 82 268 0.0 4.0 0.00 0.00 0.00 77 1021.9
20260831141517 81 263 3.0 2.0 0.00 0.00 0.00 78 1021.9
20260831141017 81 309 0.0 5.0 0.00 0.00 0.00 78 1021.9
20260831140517 81 250 2.0 3.0 0.00 0.00 0.00 78 1021.9
20260831140017 80 246 0.0 2.0 0.00 0.00 0.00 79 1022.0
20260831135517 80 193 1.0 3.0 0.00 0.00 0.00 80 1022.0
20260831135018 80 90 2.0 5.0 0.00 0.00 0.00 81 1022.0
20260831134517 80 126 2.0 5.0 0.00 0.00 0.00 82 1022.0
20260831134017 79 123 2.0 3.0 0.00 0.00 0.00 83 1022.0
20260831133517 79 147 3.0 4.0 0.00 0.00 0.00 83 1022.1
20260831133017 79 133 2.0 3.0 0.00 0.00 0.00 84 1022.1
20260831132517 78 104 2.0 3.0 0.00 0.00 0.00 85 1022.2
20260831132017 78 64 0.0 3.0 0.00 0.00 0.00 86 1022.1
20260831131517 78 51 1.0 2.0 0.00 0.00 0.00 87 1022.1
20260831131017 77 10 2.0 3.0 0.00 0.00 0.00 87 1022.0
20260831130517 77 45 0.0 2.0 0.00 0.00 0.00 88 1022.0
20260831130017 77 85 1.0 5.0 0.00 0.00 0.00 89 1022.0
20260831125522 76 90 4.0 3.0 0.00 0.00 0.00 89 1021.9
20260831125017 76 90 1.0 2.0 0.00 0.00 0.00 90 1021.9
20260831124517 76 83 1.0 3.0 0.00 0.00 0.00 91 1021.8
20260831124018 76 49 0.0 2.0 0.00 0.00 0.00 91 1021.7
20260831123517 76 23 2.0 3.0 0.00 0.00 0.00 91 1021.8
20260831123017 75 76 0.0 2.0 0.00 0.00 0.00 92 1021.7
20260831122517 75 62 1.0 3.0 0.00 0.00 0.00 92 1021.6
20260831122017 75 93 0.0 3.0 0.00 0.00 0.00 92 1021.4
20260831121517 75 0 2.0 0.0 0.00 0.00 0.00 92 1021.4
20260831121017 75 0 0.0 0.0 0.00 0.00 0.00 92 1021.3
20260831120517 75 0 0.0 0.0 0.00 0.00 0.00 92 1021.2
20260831120017 75 0 0.0 0.0 0.00 0.00 0.00 92 1021.1
20260831115517 74 0 0.0 0.0 0.00 0.00 0.00 92 1021.0
20260831115017 75 0 0.0 0.0 0.00 0.00 0.00 92 1021.0
20260831114518 74 0 0.0 0.0 0.00 0.00 0.00 92 1020.9
20260831114017 74 0 0.0 0.0 0.00 0.00 0.00 92 1020.9
20260831113517 74 0 0.0 0.0 0.00 0.00 0.00 92 1020.9
20260831113017 75 0 0.0 0.0 0.00 0.00 0.00 92 1020.8
20260831112518 75 0 0.0 0.0 0.00 0.00 0.00 92 1020.8
20260831112017 75 0 0.0 0.0 0.00 0.00 0.00 92 1020.7
20260831111517 75 0 0.0 0.0 0.00 0.00 0.00 92 1020.7
20260831111017 75 0 0.0 0.0 0.00 0.00 0.00 92 1020.5
20260831110517 75 0 0.0 0.0 0.00 0.00 0.00 92 1020.4
20260831110017 75 0 0.0 0.0 0.00 0.00 0.00 92 1020.5
20260831105517 75 0 0.0 0.0 0.00 0.00 0.00 92 1020.5
20260831105018 75 0 0.0 0.0 0.00 0.00 0.00 91 1020.4
20260831104517 75 0 0.0 0.0 0.00 0.00 0.00 91 1020.4
20260831104017 74 0 0.0 0.0 0.00 0.00 0.00 91 1020.4
20260831103517 75 0 0.0 0.0 0.00 0.00 0.00 91 1020.4
20260831103018 75 0 0.0 0.0 0.00 0.00 0.00 91 1020.3
20260831102517 75 0 0.0 0.0 0.00 0.00 0.00 91 1020.3
20260831102017 75 0 0.0 0.0 0.00 0.00 0.00 91 1020.2
20260831101517 75 0 0.0 0.0 0.00 0.00 0.00 91 1020.2
20260831101017 75 0 0.0 0.0 0.00 0.00 0.00 91 1020.2
20260831100517 75 0 0.0 0.0 0.00 0.00 0.00 91 1020.2
20260831100017 75 0 0.0 0.0 0.00 0.00 0.00 91 1020.2
20260831095517 75 0 0.0 0.0 0.00 0.00 0.00 91 1020.1
20260831095017 75 0 0.0 0.0 0.00 0.00 0.00 91 1020.1
20260831094517 75 0 0.0 0.0 0.00 0.00 0.00 91 1020.2
20260831094018 75 0 0.0 0.0 0.00 0.00 0.00 91 1020.1
20260831093517 75 0 0.0 0.0 0.00 0.00 0.00 91 1020.1
20260831093017 75 0 0.0 0.0 0.00 0.00 0.00 90 1020.0
20260831092518 75 0 0.0 0.0 0.00 0.00 0.00 90 1020.0
20260831092017 75 0 0.0 0.0 0.00 0.00 0.00 90 1019.9
20260831091517 75 0 0.0 0.0 0.00 0.00 0.00 90 1020.0
20260831091022 75 0 0.0 0.0 0.00 0.00 0.00 90 1019.9
20260831090517 75 0 0.0 0.0 0.00 0.00 0.00 90 1019.9
20260831090017 75 0 0.0 0.0 0.00 0.00 0.00 90 1019.9
20260831085517 75 0 0.0 0.0 0.00 0.00 0.00 90 1019.9
20260831085017 75 0 0.0 0.0 0.00 0.00 0.00 90 1019.8
20260831084517 75 0 0.0 0.0 0.00 0.00 0.00 90 1019.8
20260831084017 75 0 0.0 0.0 0.00 0.00 0.00 90 1019.7
20260831083517 76 0 0.0 0.0 0.00 0.00 0.00 90 1019.7
20260831083017 76 0 0.0 0.0 0.00 0.00 0.00 89 1019.6
20260831082518 76 0 0.0 0.0 0.00 0.00 0.00 89 1019.6
20260831082017 75 0 0.0 0.0 0.00 0.00 0.00 89 1019.5
20260831081517 76 0 0.0 0.0 0.00 0.00 0.00 89 1019.5
20260831081017 76 0 0.0 0.0 0.00 0.00 0.00 89 1019.5
20260831080517 76 0 0.0 0.0 0.00 0.00 0.00 89 1019.5
20260831080017 76 0 0.0 0.0 0.00 0.00 0.00 89 1019.6
20260831075518 76 0 0.0 0.0 0.00 0.00 0.00 89 1019.6
20260831075017 76 0 0.0 0.0 0.00 0.00 0.00 89 1019.5
20260831074517 76 0 0.0 0.0 0.00 0.00 0.00 88 1019.5
20260831074017 76 0 0.0 0.0 0.00 0.00 0.00 88 1019.5
20260831073517 76 0 0.0 0.0 0.00 0.00 0.00 88 1019.4
20260831073017 76 0 0.0 0.0 0.00 0.00 0.00 88 1019.5
20260831072517 76 0 0.0 0.0 0.00 0.00 0.00 88 1019.5
20260831072017 76 0 0.0 0.0 0.00 0.00 0.00 88 1019.5
20260831071518 76 0 0.0 0.0 0.00 0.00 0.00 88 1019.5
20260831071017 76 0 0.0 0.0 0.00 0.00 0.00 88 1019.5
20260831070517 76 0 0.0 0.0 0.00 0.00 0.00 87 1019.6
20260831070017 76 0 0.0 0.0 0.00 0.00 0.00 87 1019.6
20260831065517 76 0 0.0 0.0 0.00 0.00 0.00 87 1019.6
20260831065017 76 0 0.0 0.0 0.00 0.00 0.00 87 1019.7
20260831064517 77 0 0.0 0.0 0.00 0.00 0.00 87 1019.6
20260831064017 77 0 0.0 0.0 0.00 0.00 0.00 87 1019.5
20260831063517 77 0 0.0 0.0 0.00 0.00 0.00 87 1019.6
20260831063017 77 0 0.0 0.0 0.00 0.00 0.00 86 1019.6
20260831062518 77 0 0.0 0.0 0.00 0.00 0.00 86 1019.6
20260831062017 77 0 0.0 0.0 0.00 0.00 0.00 86 1019.7
20260831061517 77 0 0.0 0.0 0.00 0.00 0.00 86 1019.6
20260831061017 77 0 0.0 0.0 0.00 0.00 0.00 86 1019.6
20260831060517 77 0 0.0 0.0 0.00 0.00 0.00 86 1019.6
20260831060017 77 0 0.0 0.0 0.00 0.00 0.00 86 1019.6
20260831055518 77 0 0.0 0.0 0.00 0.00 0.00 85 1019.7
20260831055017 77 0 0.0 0.0 0.00 0.00 0.00 85 1019.7
20260831054517 77 0 0.0 0.0 0.00 0.00 0.00 85 1019.7
20260831054017 77 0 0.0 0.0 0.00 0.00 0.00 85 1019.8
20260831053517 78 0 0.0 0.0 0.00 0.00 0.00 84 1019.7
20260831053017 78 0 0.0 0.0 0.00 0.00 0.00 84 1019.7
20260831052517 78 0 0.0 0.0 0.00 0.00 0.00 84 1019.7
20260831052017 78 0 0.0 0.0 0.00 0.00 0.00 84 1019.7
20260831051517 78 0 0.0 0.0 0.00 0.00 0.00 84 1019.8
20260831051017 78 0 0.0 0.0 0.00 0.00 0.00 84 1019.8
20260831050517 78 0 0.0 0.0 0.00 0.00 0.00 84 1019.9
20260831050017 78 0 0.0 0.0 0.00 0.00 0.00 84 1019.9
20260831045517 78 0 0.0 0.0 0.00 0.00 0.00 83 1019.9
20260831045018 78 0 0.0 0.0 0.00 0.00 0.00 83 1019.9
20260831044517 78 0 0.0 0.0 0.00 0.00 0.00 83 1019.9
20260831044017 78 0 0.0 0.0 0.00 0.00 0.00 83 1019.9
20260831043517 78 0 0.0 0.0 0.00 0.00 0.00 83 1019.8
20260831043017 78 0 0.0 0.0 0.00 0.00 0.00 83 1019.8
20260831042517 78 0 0.0 0.0 0.00 0.00 0.00 82 1019.8
20260831042018 79 0 0.0 0.0 0.00 0.00 0.00 82 1019.8
20260831041517 79 0 0.0 0.0 0.00 0.00 0.00 82 1019.8
20260831041017 79 0 0.0 0.0 0.00 0.00 0.00 82 1019.9
20260831040517 79 0 0.0 0.0 0.00 0.00 0.00 82 1019.8
20260831040017 79 0 0.0 0.0 0.00 0.00 0.00 82 1019.7
20260831035517 79 0 0.0 0.0 0.00 0.00 0.00 82 1019.7
20260831035017 79 0 0.0 0.0 0.00 0.00 0.00 82 1019.7
20260831034517 79 0 0.0 0.0 0.00 0.00 0.00 82 1019.7
20260831034017 79 0 0.0 0.0 0.00 0.00 0.00 81 1019.7
20260831033517 79 0 0.0 0.0 0.00 0.00 0.00 81 1019.8
20260831033017 79 0 0.0 0.0 0.00 0.00 0.00 81 1019.7
20260831032517 79 0 0.0 0.0 0.00 0.00 0.00 81 1019.8
20260831032017 80 0 0.0 0.0 0.00 0.00 0.00 81 1019.8
20260831031517 80 0 0.0 0.0 0.00 0.00 0.00 80 1019.7
20260831031017 80 0 0.0 0.0 0.00 0.00 0.00 80 1019.7
20260831030517 80 0 0.0 0.0 0.00 0.00 0.00 80 1019.6
20260831030017 80 0 0.0 0.0 0.00 0.00 0.00 80 1019.6
20260831025518 80 0 0.0 0.0 0.00 0.00 0.00 79 1019.5
20260831025018 80 0 0.0 0.0 0.00 0.00 0.00 79 1019.5
20260831024518 80 0 0.0 0.0 0.00 0.00 0.00 79 1019.4
20260831024018 80 0 0.0 0.0 0.00 0.00 0.00 78 1019.5
20260831023518 80 0 0.0 0.0 0.00 0.00 0.00 78 1019.6
20260831023018 80 0 0.0 0.0 0.00 0.00 0.00 78 1019.5
20260831022517 81 0 0.0 0.0 0.00 0.00 0.00 77 1019.5
20260831022018 81 0 0.0 0.0 0.00 0.00 0.00 77 1013.7
20260831021518 81 0 0.0 0.0 0.00 0.00 0.00 1009.6
20260831021018 81 0 0.0 0.0 0.00 0.00 0.00 76 1018.8
20260831020518 81 0 0.0 0.0 0.00 0.00 0.00 76 1018.6
20260831020018 81 0 0.0 0.0 0.00 0.00 0.00 75 1018.5
20260831015518 81 0 0.0 0.0 0.00 0.00 0.00 75 1018.4
20260831015018 82 0 0.0 0.0 0.00 0.00 0.00 75 1018.6
20260831014518 82 0 0.0 0.0 0.00 0.00 0.00 74 1019.2
20260831014018 82 0 0.0 0.0 0.00 0.00 0.00 74 1019.1
20260831013518 82 0 0.0 0.0 0.00 0.00 0.00 74 1019.2
20260831013018 82 0 0.0 0.0 0.00 0.00 0.00 73 1019.1
20260831012518 82 0 0.0 0.0 0.00 0.00 0.00 73 1019.1
20260831012018 82 0 0.0 0.0 0.00 0.00 0.00 73 1019.0
20260831011518 82 0 0.0 0.0 0.00 0.00 0.00 72 1019.0
20260831011018 83 0 0.0 0.0 0.00 0.00 0.00 72 1019.0
20260831010518 83 0 0.0 0.0 0.00 0.00 0.00 71 1018.9
20260831010018 83 0 0.0 0.0 0.00 0.00 0.00 70 1018.8
20260831005517 83 0 0.0 0.0 0.00 0.00 0.00 69 1018.8
20260831005018 84 0 0.0 0.0 0.00 0.00 0.00 69 1018.8
20260831004518 84 0 0.0 0.0 0.00 0.00 0.00 69 1018.8
20260831004018 84 0 0.0 0.0 0.00 0.00 0.00 68 1018.8